User: anonymous   Login
Location: D?uga
(50.2667°N, 19.7833°E)
Time: 05:35:09
(UTC+00:00)
Language:

Cosmos 2333 Rocket - Orbit

View from above orbital plane
View from above orbital plane
View from above satellite
View from above satellite

Ground track
Ground track

The orbit data is extracted from the following two-line orbital elements,

1 24298U 96051B   24204.42168645 -.00000153  00000-0 -56003-4 0  9993
2 24298  70.8010 354.3399 0017978 292.2801  67.6412 14.12464306437590
Epoch (UTC): 22 July 2024 10:07:13
Eccentricity: 0.0017978
inclination: 70.8010°
perigee height: 838 km
apogee height: 864 km
right ascension of ascending node: 354.3399°
argument of perigee: 292.2801°
revolutions per day: 14.12464306
mean anomaly at epoch: 67.6412°
orbit number at epoch: 43759

The dashed part of the orbit path shows where the satellite is in the earth's shadow,  

DLR